STARLINK-1138 (45178 NORAD) Tracking and Keplerian Element Data

This shows tracking and keplerian element data for the satellite.

Feedback or suggestion? Click here.




ElementValue
Catalog45178
NameSTARLINK-1138
Epoch Orbit767
Epoch Day94.25001157
Epoch Year2020
RAAN52.1543
Inclination52.9973
Eccentricity0.0001613
Argument of Perigee72.1954
Mean Anonmoly316.9925
Mean Motion15.05557939
Decay Rate0.00014919
L11 45178U 20012A 20094.25001157 .00014919 00000-0 10415-2 0 9993
L22 45178 52.9973 52.1543 0001613 72.1954 316.9925 15.05557939 7675

Live tracking and technical data element details for STARLINK-1138 (NORAD 45178). STARLINK-1138 can be tracked NOW for your location showing map with azimuth and elevation plus other details from your city location.

Track the satellite on the map from your city or location and see movement details for azimuth, elevation, latitude, longitude, range, height, and movement on the map or in text.







IsCatalogInMostPopularTable: catalog: 45178, numindb: 7
Update: records affected: 1



GetName: 45178 STARLINK-1138

Hit Count: updated at: Mon, 06 Apr 2020 11:04:42 GMT